Cartersville, GA

8:28 PM EST on November 17, 2019 (GMT -0500)
Cartersville

Weather History for KVPC - September, 2019

Change the Weather History Date:

Tuesday, September 17, 2019

  Actual Average Record
Temperature  
Mean Temperature 82 °F 71 °F  
Max Temperature 100 °F 82 °F 93 °F (2010)
Min Temperature 64 °F 59 °F 45 °F (2000)
Degree Days  
Heating Degree Days 0 0  
Month to date heating degree days 0 0  
Since 1 July heating degree days 0 0  
Cooling Degree Days 18 6  
Month to date cooling degree days 284 151  
Year to date cooling degree days 1856 1416  
Growing Degree Days 32 (Base 50)    
Moisture  
Dew Point 64 °F    
Average Humidity 60    
Maximum Humidity 93    
Minimum Humidity 30    
Precipitation  
Precipitation 0.00 in 0.13 in 1.28 in (1962)
Month to date precipitation 0.01 1.92  
Year to date precipitation 31.55 36.51  
Sea Level Pressure  
Sea Level Pressure 29.96 in    
Wind  
Wind Speed 1 mph ()    
Max Wind Speed 13 mph    
Max Gust Speed 16 mph    
Visibility 10.0 miles    
Events      
T = Trace of Precipitation, MM = Missing Value Source: Averaged Metar Reports

Daily Weather History Graph

Daily Weather History Graph

Search for Another Location

Airport or City:

Astronomy

Sep. 17, 2019 Rise Set
Actual Time 7:23 AM EDT 7:43 PM EDT
Civil Twilight 6:58 AM EDT 8:08 PM EDT
Nautical Twilight 6:29 AM EDT 8:37 PM EDT
Astronomical Twilight 5:59 AM EDT 9:07 PM EDT
Moon 9:54 PM EDT (9/17) 10:20 AM EDT (9/17)
Length of Visible Light 13h 09m
Length of Day
12h 19m
Waning Gibbous, 89% of the Moon is Illuminated
Sep 17
Waning Gibbous
Sep 21
Last Quarter
Sep 28
New
Oct 5
First Quarter
Oct 13
Full

Hourly Weather History & Observations

Time (EDT) Temp. Heat Index Dew Point Humidity Pressure Visibility Wind Dir Wind Speed Gust Speed Precip Events Conditions
12:53 AM 70.0 °F - 63.0 °F 78% 29.99 in 10.0 mi Calm Calm - N/A   Clear
1:53 AM 69.1 °F - 62.1 °F 78% 29.99 in 10.0 mi Calm Calm - N/A   Clear
2:53 AM 68.0 °F - 62.1 °F 81% 29.98 in 10.0 mi Calm Calm - N/A   Clear
3:53 AM 66.9 °F - 62.1 °F 84% 29.96 in 10.0 mi Calm Calm - N/A   Clear
4:53 AM 66.0 °F - 62.1 °F 87% 29.96 in 10.0 mi Calm Calm - N/A   Clear
5:53 AM 64.9 °F - 62.1 °F 90% 29.97 in 10.0 mi Calm Calm - N/A   Clear
6:53 AM 66.0 °F - 61.0 °F 84% 29.99 in 10.0 mi Calm Calm - N/A   Clear
7:53 AM 66.0 °F - 62.1 °F 87% 30.01 in 10.0 mi Calm Calm - N/A   Clear
8:53 AM 72.0 °F - 63.0 °F 73% 30.01 in 10.0 mi Calm Calm - N/A   Clear
9:53 AM 78.1 °F - 64.0 °F 62% 30.02 in 10.0 mi Calm Calm - N/A   Clear
10:53 AM 84.9 °F 86.1 °F 64.0 °F 49% 30.02 in 10.0 mi Calm Calm - N/A   Clear
11:53 AM 91.0 °F 93.0 °F 64.9 °F 42% 30.01 in 10.0 mi Variable 3.5 mph - N/A   Clear
12:53 PM 96.1 °F 99.3 °F 66.0 °F 37% 29.99 in 10.0 mi Variable 3.5 mph - N/A   Clear
1:53 PM 97.0 °F 99.3 °F 64.0 °F 34% 29.96 in 10.0 mi Variable 3.5 mph - N/A   Scattered Clouds
2:53 PM 99.0 °F 101.7 °F 64.0 °F 32% 29.94 in 10.0 mi Variable 3.5 mph - N/A   Clear
3:53 PM 98.1 °F 99.6 °F 63.0 °F 31% 29.91 in 10.0 mi Calm Calm - N/A   Clear
4:53 PM 99.0 °F 100.5 °F 63.0 °F 30% 29.90 in 10.0 mi North 10.4 mph - N/A   Mostly Cloudy
5:53 PM 97.0 °F 99.3 °F 64.0 °F 34% 29.90 in 10.0 mi Variable 4.6 mph - N/A   Clear
6:53 PM 93.9 °F 95.6 °F 64.0 °F 37% 29.90 in 10.0 mi Variable 3.5 mph - N/A   Clear
7:53 PM 88.0 °F 89.6 °F 64.9 °F 46% 29.90 in 10.0 mi Calm Calm - N/A   Clear
8:53 PM 84.0 °F 86.3 °F 66.0 °F 55% 29.92 in 10.0 mi Calm Calm - N/A   Mostly Cloudy
9:53 PM 80.1 °F 82.1 °F 66.0 °F 62% 29.94 in 10.0 mi Calm Calm - N/A   Clear
10:53 PM 77.0 °F - 66.0 °F 69% 29.95 in 10.0 mi Calm Calm - N/A   Clear
11:53 PM 75.9 °F - 64.9 °F 69% 29.96 in 10.0 mi Calm Calm - N/A   Clear